Showing default

W-SERIES 4, 64543

Orbit data source: Space-Track

W-SERIES 4, 64543 is a payload satellite owned by Varda Space (US) in SSO that was launched on Mon, 23 Jun 2025 UTC via an FALCON 9 launch vehicle from the Air Force Western Test Range (AFWTR). Payload-class satellites include a variety of spacecraft equipped with specific instruments for various scientific and technological missions. These include communications satellites like Starlink; space stations such as the ISS; scientific satellites like the Hubble; Earth observation satellites from companies like Planet Labs, Umbra, and HawkEye 360; GPS; miniature CubeSats for education and research; and military/defense satellites.

Not visible in the next 10 days
Identifier
64543, 2025-135R
Orbit
SSO
Country
Flag of USUS
Related business
Manufacturer
Varda Space
Mission
Operational Commercial Microgravity
Bus & Motor
VW, Unknown motor
Mass
300 kg wet, 55 kg dry
Launch date (UTC)
2025-06-23 (11 months ago)
Launch vehicle
FALCON 9
Launch site
Air Force Western Test Range (AFWTR)
Object type
Payload
Rocket body
Debris
Shape & HBR
Box + Trunc Cone + Cone + 2 Pan, 2.4 m
Radar Cross Section
3.416 m², Large (>1 m²)

Expand to show TLE details & history
Last TLE update: 8 hours ago

TLE from 8 hours ago
0 W-SERIES 4
1 64543U 25135R   26149.95954597  .03167458  19530-5  52309-3 0  9992
2 64543  97.4204 261.5534 0249774 144.4703 217.3494 15.84781843 51805
Epoch: 2026-05-29T23:01Z
TLE epoch observation values (Epoch: 2026-05-29T23:01:44.771Z)
Latitude
-0.00006°
Longitude
28.63442°
Altitude
454.581 km
Speed
7.563 km/s
True Right ascension
17h 26m 12s
True Declination
0° 00' 00"
Sunlit
Object was in full shadow at epoch
Visualization orbit readout
Latitude
Unknown
Longitude
Unknown
Altitude
Unknown
Speed
Unknown
Apparent Right ascension
Unknown
Apparent Declination
Unknown
Sunlit
N/A
Visualization observer readout
Local Sidereal Time
17:00:39
Azimuth
Unknown
Elevation
Unknown
Doppler factor
Unknown
Orbital elements
Apogee altitude
480.964 km
Perigee altitude
146.669 km
Semi-major axis
6,691.954 km
Eccentricity
0.02498
Inclination
97.4204°
RAAN
261.5534°
Arg. of periapsis
144.4703°
True anomaly
215.65532°
Mean anomaly
217.3494°
Eccentric anomaly
216.49819°
Mean motion
3.96473 °/min
Orbital period
90.8 mins
BSTAR
0.00052309
Loading maneuver chart data...
Computing Atmospheric mass density...
Loading historical data...
Loading historical data...
Loading historical data...
Loading historical data...
Loading historical data...
Loading historical data...
Loading historical data...

Documentation

Showing up to 5 results
|